sat.trackr.live / text

‹ back to catalog

STARLINK-30608

NORAD 58091 · 2023-160S

PAYLOAD ACTIVE UNKNOWN

§ Identity

Operator
Country
US
Launch date
2023-10-18
Launch site
AFETR
Launch vehicle
Mass (kg)
RCS (m²)

Purposes: comms

External: N2YO · Heavens-Above · Gunter

§ Orbital elements

Epoch: 2026-05-24T22:08:25.002240Z

Period
94.27 min
Inclination
43.0064°
Eccentricity
0.0001710
Mean motion
15.27574298 rev/d
Perigee alt
481.9 km
Apogee alt
484.2 km
Semi-major
6,861.2 km
B*
2.9382e-5
RAAN
7.4437°
Arg perigee
285.1180°
Mean anomaly
74.9482°
Rev number
14,460

§ Raw data

STARLINK-306081 58091U 23160S   26144.92251160  .00000546  00000+0  29382-4 0  99902 58091  43.0064   7.4437 0001710 285.1180  74.9482 15.27574298144600

JSON: /api/v1/satellites/58091 · /tle

For live sub-satellite position, see the globe view (requires WebGL).

§ Visibility from observer

Set your observer location to see the next 7 days of passes ≥ 10°. The values pass through the URL so the page stays shareable.

No JS? Fill the form by hand. The geolocation button needs JavaScript.